Vorticity
nan nan nan nan nan nan nan nan nan nan nan nan nan nan nan nan nan nan nan nan nan nan nan nan nan nan nan nan nan nan nan nan nan nan nan nan nan nan nan nan nan nan nan nan nan nan nan nan nan nan nan nan nan nan nan nan nan nan nan nan nan nan nan nan nan nan nan nan nan nan nan nan nan nan nan nan nan nan nan nan nan nan nan nan nan nan nan nan nan nan nan nan nan nan nan nan nan nan nan nan nan nan nan
nan 3 3 3 4 4 6 6 5 5 5 6 7 8 7 6 5 4 4 4 4 4 4 4 4 4 4 4 5 5 5 6 6 6 6 6 6 6 6 5 5 5 5 5 6 7 12 18 20 16 8 7 6 6 6 6 7 7 7 6 5 6 7 6 7 7 8 7 6 6 6 6 5 5 5 5 5 5 5 4 4 4 5 5 5 6 6 5 4 4 5 6 8 10 11 10 9 8 8 7 7 7 nan
nan 4 4 4 4 4 5 5 4 4 5 6 7 7 6 4 4 3 4 4 4 4 4 5 5 5 5 5 5 5 6 6 6 6 6 5 5 5 5 5 4 4 5 6 7 10 15 21 21 16 5 7 7 8 7 6 5 5 5 5 5 6 7 5 6 6 6 5 5 5 6 6 5 5 4 5 5 7 7 6 6 5 5 4 5 5 5 5 5 4 4 3 4 5 7 7 7 7 6 6 6 6 nan
nan 4 4 4 4 4 4 4 4 4 5 7 7 6 5 4 3 3 4 4 4 5 5 5 5 5 5 6 6 6 7 6 6 6 5 5 5 5 4 4 4 4 5 6 9 15 20 20 16 11 5 5 6 6 6 6 5 5 4 4 5 5 7 7 7 6 5 5 5 5 5 5 5 5 5 6 7 9 10 9 7 6 4 5 5 5 5 5 5 5 4 3 3 3 4 4 5 5 5 5 5 5 nan
nan 5 5 5 4 4 4 4 4 4 7 8 7 5 4 3 3 4 4 5 5 5 6 6 6 6 6 7 7 7 7 7 6 5 5 5 5 4 4 4 4 5 5 6 8 16 20 18 12 7 5 5 5 5 6 6 5 4 4 4 4 5 7 8 8 7 6 5 5 5 6 6 6 7 6 8 9 10 12 10 8 6 5 5 5 5 5 5 5 5 5 4 4 4 4 4 5 4 4 4 4 4 nan
nan 5 5 5 5 5 4 4 4 6 8 9 7 5 3 3 4 4 5 5 6 6 6 6 7 7 7 8 8 8 8 7 6 5 5 5 5 4 4 4 4 5 5 5 6 12 18 17 11 6 5 6 6 7 7 7 6 5 4 4 3 4 6 9 9 8 6 5 5 6 7 7 8 8 9 10 11 10 10 9 7 7 6 5 5 5 5 5 5 5 5 5 5 5 5 5 5 5 4 4 4 4 nan
nan 4 4 5 5 5 4 4 5 6 8 9 7 5 3 4 4 5 5 6 6 6 6 6 7 8 8 8 8 8 8 7 6 5 5 5 5 4 4 4 4 4 4 4 5 9 14 13 9 6 6 6 7 8 9 9 9 7 6 4 2 4 7 9 9 8 6 5 6 7 8 9 10 12 12 12 12 10 9 8 9 8 7 5 6 6 6 5 5 5 5 5 5 6 6 6 5 5 5 5 5 4 nan
nan 3 4 4 4 4 4 5 6 7 8 7 6 5 4 4 5 5 5 5 5 5 6 7 8 8 9 9 9 8 7 6 5 5 5 5 4 4 3 3 3 3 4 3 3 5 10 12 9 7 6 6 6 7 9 9 8 7 5 4 2 3 7 9 9 7 4 5 6 8 10 11 12 13 14 13 12 10 9 10 10 9 8 5 5 5 5 5 5 5 5 5 5 5 6 6 5 5 5 5 5 5 nan
nan 3 3 4 4 4 5 6 7 8 8 6 6 5 5 5 5 5 5 5 5 5 6 7 8 9 9 9 8 8 7 6 5 5 5 4 4 3 3 2 3 3 3 3 3 2 9 14 10 7 6 5 5 6 9 8 6 5 4 4 3 4 7 10 9 7 5 6 7 9 10 10 11 12 13 12 10 9 8 9 9 8 6 5 5 5 5 5 5 5 5 5 5 5 5 5 5 5 5 5 5 5 nan
nan 4 4 5 5 5 6 9 11 11 9 6 5 5 5 5 5 5 5 5 5 5 6 8 9 9 9 9 8 7 6 5 5 5 4 4 3 2 2 2 2 2 2 2 2 2 9 14 10 8 6 5 5 5 8 9 7 5 4 3 4 6 8 11 11 8 7 7 8 8 8 8 9 10 10 9 8 7 6 7 7 6 5 5 5 4 4 4 4 4 5 5 5 5 5 5 4 4 4 5 5 5 nan
nan 4 5 5 5 5 7 10 11 12 9 7 5 5 5 5 5 4 4 4 5 5 6 7 8 9 9 9 8 7 6 5 5 4 4 3 3 2 2 2 2 2 2 2 2 4 10 14 11 9 6 5 5 6 8 9 7 5 2 2 4 7 10 13 12 10 9 9 8 8 7 6 6 7 6 6 6 6 6 5 5 4 4 4 4 4 4 4 4 4 4 4 5 5 5 5 4 4 4 4 4 5 nan
nan 4 4 4 5 6 7 9 10 9 8 7 6 5 5 4 4 4 4 4 5 5 6 7 8 8 9 8 7 7 6 5 4 4 3 3 2 2 1 1 2 1 2 3 4 8 13 15 11 9 7 5 5 6 9 8 6 4 3 3 6 9 13 15 14 11 10 9 8 6 5 5 4 4 4 4 5 4 4 4 4 4 4 4 4 4 4 4 4 4 4 4 5 5 5 5 5 5 5 4 5 5 nan
nan 3 3 4 5 8 10 10 9 7 6 6 5 5 4 4 4 4 4 4 4 5 5 6 6 7 8 7 7 6 6 5 4 4 3 2 2 1 1 1 1 2 2 4 8 13 15 13 9 7 7 6 6 7 10 7 5 4 4 5 10 15 18 17 15 12 10 9 7 6 5 3 3 3 3 4 4 4 4 4 4 4 4 4 4 4 4 5 5 5 5 5 5 5 5 5 5 5 5 5 5 5 nan
nan 1 2 4 6 8 11 11 9 6 5 5 5 5 4 4 4 4 4 4 4 4 5 5 5 6 6 6 6 6 5 5 4 3 3 2 2 1 1 1 1 2 4 9 12 14 12 10 7 6 7 7 7 7 10 7 5 3 5 9 14 18 19 17 14 12 10 8 7 6 4 3 3 3 4 4 3 3 4 4 4 4 4 4 4 5 5 5 5 5 5 5 5 5 5 5 6 6 5 5 5 5 nan
nan 3 4 5 5 7 10 11 9 6 5 4 4 4 4 4 4 4 4 4 4 4 5 5 5 5 5 5 5 5 5 4 4 3 3 2 2 1 1 1 2 3 8 12 12 11 10 8 7 6 7 7 8 8 8 6 5 4 7 13 16 17 16 13 12 10 8 7 6 5 4 4 3 4 4 4 4 4 4 4 4 4 4 5 5 5 5 6 6 6 6 6 6 6 6 6 6 6 6 5 6 6 nan
nan 6 5 5 5 6 9 11 9 6 5 4 4 4 5 5 5 4 4 4 4 4 4 4 4 4 4 4 3 2 1 3 3 3 3 2 2 2 1 1 3 6 10 11 10 9 10 8 7 6 7 8 8 8 7 5 5 6 11 17 16 14 11 9 9 8 6 5 5 4 4 3 3 4 4 4 4 4 4 4 5 5 5 5 5 6 6 6 6 6 7 7 7 6 6 6 6 6 6 6 6 6 nan
nan 6 5 4 5 5 7 9 8 7 5 4 5 5 5 5 5 5 4 4 4 4 4 4 4 4 3 2 0 -3 -2 1 1 2 3 2 2 2 2 3 5 8 9 9 9 9 9 8 7 7 7 8 8 7 6 6 8 12 16 18 15 12 8 7 6 5 4 3 3 3 3 3 3 3 4 4 4 5 5 5 5 5 5 6 6 6 6 6 7 7 7 7 7 7 7 7 7 6 6 6 6 6 nan
nan 7 5 4 4 4 6 7 7 7 6 5 6 6 6 6 5 5 5 4 4 4 4 4 4 4 3 1 -3 -5 -1 2 2 3 3 4 4 4 4 5 8 9 8 9 9 9 8 8 7 7 8 8 8 7 6 8 12 16 19 17 13 9 7 6 5 4 3 2 2 2 2 3 3 3 4 4 5 5 6 6 6 6 6 6 6 6 6 7 7 7 7 7 7 8 7 7 7 7 7 6 6 6 nan
nan 6 5 4 5 4 4 5 6 7 7 6 6 6 6 6 6 5 5 5 4 4 4 4 4 4 3 -0 -3 -2 2 4 4 5 5 6 6 6 6 8 9 10 9 9 9 8 8 7 7 8 9 8 8 6 7 11 14 16 18 13 9 7 5 4 4 4 3 3 3 3 3 4 4 4 4 4 5 5 6 6 6 6 6 6 6 6 6 7 7 7 8 8 8 8 7 7 7 7 7 7 6 6 nan
nan 4 4 4 4 4 3 4 5 7 7 6 6 6 6 6 6 6 6 5 4 4 4 4 3 4 3 -1 -1 1 4 7 6 6 6 7 7 7 7 8 9 9 9 8 8 8 7 7 7 8 9 8 6 5 8 13 15 14 12 9 7 6 4 3 3 4 3 3 3 3 3 4 4 4 4 5 5 5 6 6 7 6 6 6 6 6 6 7 7 8 8 8 8 8 7 7 7 7 7 7 7 7 nan
nan 3 4 5 4 3 1 3 4 5 7 5 2 3 6 6 7 7 5 3 4 5 4 2 1 3 4 2 3 4 6 8 8 7 7 7 7 7 7 8 8 8 7 8 8 7 7 7 7 9 10 7 5 5 10 17 15 11 8 7 6 6 5 4 3 3 3 3 3 3 4 4 4 4 5 5 5 6 6 7 7 7 7 6 6 6 7 7 7 8 8 8 8 8 7 7 7 7 7 7 7 7 nan
nan 4 5 5 4 3 2 3 4 5 8 6 -0 1 5 6 7 7 3 2 5 6 4 2 2 4 6 7 6 5 7 8 8 8 8 8 8 8 8 8 7 7 7 8 7 7 7 7 8 9 10 7 5 4 12 19 13 8 6 5 6 6 5 4 4 3 4 3 4 4 4 4 4 4 5 5 6 6 7 7 7 7 7 6 6 6 7 7 7 8 7 7 7 7 7 7 7 7 6 6 7 7 nan
nan 5 5 5 5 5 5 5 5 5 8 6 1 2 5 6 7 6 4 4 6 7 5 3 4 6 8 8 9 8 9 9 8 8 8 8 8 8 8 8 7 7 8 8 7 7 6 7 8 9 9 7 5 4 13 17 11 8 6 5 5 5 5 5 5 4 4 4 4 4 4 4 4 4 5 5 6 6 7 7 7 7 7 6 6 6 7 7 7 7 7 7 7 7 7 7 6 6 6 7 7 7 nan
nan 6 6 6 6 6 6 6 6 6 8 7 3 4 6 8 8 6 4 5 7 8 6 4 4 6 8 8 9 9 10 9 8 8 8 8 8 8 8 8 7 7 8 8 7 7 6 7 8 9 9 7 5 4 11 15 15 12 7 6 6 5 6 6 5 5 4 4 3 3 3 4 4 4 5 5 6 6 7 7 7 7 6 6 6 6 7 7 7 7 7 7 7 7 6 6 6 6 6 6 7 7 nan
nan 7 7 6 7 7 7 6 6 6 8 8 5 5 6 9 8 7 5 5 7 8 7 6 5 7 8 8 9 10 10 8 7 8 8 8 8 8 8 8 8 8 8 8 7 7 6 7 8 9 8 6 5 4 6 12 16 15 13 12 10 8 8 7 6 5 4 4 3 3 3 3 4 4 5 6 6 6 6 6 6 6 6 6 6 6 7 7 7 7 7 7 6 6 6 6 6 6 6 7 7 7 nan
nan 7 7 7 8 8 7 6 6 7 8 8 7 5 7 8 8 8 6 6 8 9 9 8 7 8 8 8 8 9 8 7 7 7 7 8 8 8 8 8 8 8 8 7 7 7 6 7 8 9 8 6 5 3 3 8 12 15 17 18 16 14 11 8 7 6 4 4 4 3 3 3 4 4 5 5 6 6 6 6 6 6 6 6 6 6 7 7 7 7 7 6 6 6 6 6 6 7 7 7 7 7 nan
nan 7 7 8 8 8 8 6 6 7 9 9 7 6 7 7 9 9 8 8 8 9 9 9 9 8 8 9 8 7 6 6 6 6 7 7 7 8 8 8 8 8 8 7 7 7 6 7 8 9 8 6 5 4 3 4 7 11 15 17 18 17 13 10 7 6 5 5 4 4 4 4 4 4 5 6 6 6 6 6 6 6 6 6 6 6 7 7 7 6 6 6 6 6 6 6 7 7 7 7 7 7 nan
nan 7 8 8 8 9 8 7 7 7 9 9 8 7 7 7 8 9 9 8 7 8 8 9 9 9 8 9 8 7 6 6 7 7 6 6 7 7 8 9 8 8 7 7 7 7 7 7 8 10 9 7 5 5 3 1 4 8 11 13 15 15 14 11 8 7 6 5 5 4 4 4 4 5 5 6 6 6 6 6 6 6 6 6 6 6 6 6 6 6 6 6 6 6 6 6 7 7 7 7 7 7 nan
nan 7 7 8 9 9 8 8 8 7 8 9 7 8 7 7 7 8 9 8 7 7 7 8 8 8 8 8 8 8 7 7 7 7 6 6 6 7 8 9 8 8 7 7 7 7 7 7 8 10 10 8 6 5 4 2 3 6 8 10 12 13 13 12 9 8 6 5 5 4 4 4 5 5 5 6 6 6 6 6 6 6 6 6 6 6 6 6 6 6 5 5 5 6 6 6 7 7 7 7 7 7 nan
nan 7 7 8 8 8 8 8 8 7 7 8 7 7 7 7 7 8 8 8 7 6 6 7 7 8 7 7 7 8 8 7 7 7 7 6 6 7 7 8 9 8 8 7 7 7 8 8 8 9 9 7 5 6 5 4 3 4 7 8 9 11 12 11 10 9 7 6 5 5 5 5 5 6 6 6 6 6 6 6 6 6 6 6 6 6 6 5 5 5 5 5 5 5 6 6 6 7 7 7 7 7 nan
nan 8 8 7 7 6 7 8 8 7 7 7 7 7 8 8 7 7 8 8 7 6 6 7 7 7 7 6 6 7 8 7 7 7 7 7 6 7 7 8 9 8 8 7 7 8 8 9 8 8 8 8 6 5 4 4 3 3 6 8 8 9 10 10 10 9 8 7 6 5 5 6 6 6 6 7 6 6 6 6 6 6 6 6 6 6 6 5 5 5 4 5 5 5 6 6 6 6 7 7 7 6 nan
nan 8 8 7 7 7 7 7 7 7 7 7 8 7 8 7 7 7 8 8 8 7 7 7 7 7 7 6 6 7 8 7 7 7 7 7 7 7 7 8 9 8 8 7 7 7 7 8 8 8 9 10 8 5 5 5 3 2 2 6 8 9 9 9 9 9 8 7 6 6 6 6 7 7 7 7 7 7 7 6 6 6 6 6 7 7 6 6 6 5 5 5 5 5 5 6 6 6 6 6 6 6 nan
nan 7 8 8 7 7 7 7 7 7 7 8 8 8 7 7 7 7 7 9 10 9 9 9 9 8 7 6 7 8 7 7 7 8 8 7 7 7 8 8 9 8 8 7 7 7 7 7 8 8 10 11 9 7 6 5 4 3 1 4 7 9 10 10 10 10 9 8 7 7 7 7 7 8 8 8 7 7 7 6 6 6 6 6 7 7 7 6 6 6 5 5 5 5 5 5 6 6 6 6 6 6 nan
nan 7 7 8 8 7 7 7 7 7 8 8 8 8 8 7 6 6 7 9 10 9 9 9 9 8 7 7 8 8 7 7 7 8 8 7 7 7 8 8 8 9 9 7 7 7 7 7 7 8 9 10 10 8 6 5 5 4 3 4 6 7 9 10 11 11 11 10 9 8 8 8 8 8 8 8 8 7 7 6 6 6 6 7 7 7 7 7 7 7 6 6 5 5 5 5 5 5 6 6 5 5 nan
nan 7 7 7 7 8 7 7 7 7 8 8 9 9 9 7 6 6 7 8 8 8 7 8 8 7 7 8 8 7 6 7 7 8 8 7 7 7 8 7 8 8 8 7 7 7 7 6 7 8 9 10 10 8 6 5 5 6 6 4 3 4 6 8 10 12 14 14 13 11 10 9 9 9 8 8 7 7 6 6 6 6 6 6 6 6 7 7 7 7 7 6 6 6 5 5 5 5 5 5 5 5 nan
nan 7 7 7 7 8 7 7 8 8 8 8 9 10 8 6 7 7 7 7 7 7 6 7 7 7 7 7 7 7 6 7 7 7 7 8 8 8 7 7 7 8 7 7 8 8 8 6 6 7 9 9 9 9 9 7 7 7 6 4 2 1 1 3 6 10 14 15 15 14 12 10 9 8 8 7 7 7 6 6 6 6 6 6 6 6 6 6 6 7 7 7 7 6 6 6 5 5 5 5 5 5 nan
nan 8 7 7 7 7 7 8 9 9 8 7 8 9 7 6 7 8 8 8 8 6 7 8 8 7 6 6 7 6 6 6 7 7 7 8 9 9 7 7 8 8 7 7 8 9 8 7 7 7 8 8 9 10 10 9 8 7 6 5 4 2 1 2 3 6 11 15 16 15 13 10 9 8 8 7 7 6 6 6 6 6 6 6 6 6 6 6 6 6 7 7 7 7 7 6 6 6 5 5 5 5 nan
nan 7 8 7 7 7 7 8 9 9 8 7 8 8 7 8 8 8 8 8 7 6 7 8 8 7 6 6 7 7 7 5 6 7 7 8 9 8 7 7 8 8 7 7 8 9 8 7 7 8 8 8 8 9 10 10 9 7 6 6 5 5 5 5 4 3 6 11 14 15 14 12 10 9 8 7 7 6 6 6 6 6 6 6 6 6 6 6 6 6 6 7 7 7 7 7 7 6 6 5 5 4 nan
nan 7 8 8 8 7 7 8 10 8 7 7 8 8 8 8 8 8 8 8 7 6 6 7 7 7 6 7 8 9 7 5 6 6 7 8 9 8 7 7 8 8 7 7 8 8 7 8 8 8 8 8 8 8 9 10 9 8 7 6 6 6 6 6 5 4 4 6 9 13 14 13 11 10 8 7 7 7 7 6 6 6 6 6 6 6 6 6 6 6 6 6 7 7 7 7 7 7 7 6 5 5 nan
nan 7 8 8 8 7 8 9 9 7 6 7 8 9 8 8 8 7 8 8 7 6 6 7 7 7 6 6 7 9 8 6 6 6 8 8 8 7 7 7 8 8 8 8 7 7 7 8 9 8 7 7 7 8 8 8 9 9 9 7 7 6 6 6 6 5 5 5 6 10 13 14 13 11 9 8 7 7 7 7 6 6 6 5 5 5 5 6 5 6 6 6 6 7 7 7 7 7 7 7 6 6 nan
nan 7 7 8 8 8 9 9 8 7 7 7 8 9 8 7 8 7 7 7 7 7 7 6 6 7 7 6 7 7 8 7 7 7 8 8 7 6 7 8 8 8 8 8 7 6 6 8 9 8 7 7 8 9 8 7 7 9 10 9 9 9 8 8 6 4 5 5 6 7 11 14 13 12 11 9 8 8 7 7 7 6 6 5 5 5 5 5 5 5 5 6 6 6 7 7 7 7 7 7 7 6 nan
nan 7 7 8 8 9 9 8 7 7 7 7 8 8 8 7 8 8 7 6 6 7 7 7 6 6 7 7 7 8 9 8 7 8 9 8 7 7 8 7 7 7 8 8 7 6 7 7 8 9 8 7 8 8 7 7 7 8 9 10 10 11 11 8 5 4 5 5 6 6 8 11 12 13 11 9 8 8 8 8 8 7 6 5 5 5 5 5 5 5 5 5 6 6 6 7 7 7 7 7 7 7 nan
nan 6 7 7 7 9 9 9 7 7 7 7 8 8 8 7 8 8 7 7 7 7 8 8 7 6 7 8 8 8 8 8 7 7 8 8 7 8 8 7 6 7 8 8 7 7 7 7 8 9 8 8 8 8 7 7 7 7 7 8 9 10 11 9 7 7 6 6 6 5 6 8 10 11 10 8 7 7 7 8 8 8 7 6 5 5 5 5 5 5 5 5 5 5 6 6 6 6 6 6 6 6 nan
nan 7 7 7 7 8 9 8 7 8 8 8 8 8 8 8 8 7 7 7 7 7 8 9 8 6 6 8 9 8 8 8 7 7 8 8 8 9 8 6 6 6 8 8 8 7 7 8 9 9 8 8 8 7 7 7 7 7 7 7 8 9 9 9 9 10 9 7 5 5 6 6 7 8 6 4 4 5 6 8 9 8 7 6 6 5 5 5 5 5 5 5 6 6 6 6 6 6 6 6 6 6 nan
nan 7 7 7 7 8 8 8 7 7 8 8 8 8 8 8 8 7 6 7 7 7 8 9 9 7 5 8 9 9 8 9 9 9 8 8 9 9 8 6 6 7 8 8 8 8 8 8 8 8 7 8 8 8 8 8 7 6 7 8 8 8 8 8 9 11 10 8 6 6 7 6 5 5 4 3 2 3 6 8 8 8 7 6 5 5 4 4 5 5 5 6 6 6 6 6 6 6 5 6 6 6 nan
nan 6 7 7 7 8 8 7 7 7 8 8 8 8 7 7 7 7 6 7 7 7 8 9 9 8 5 6 8 9 9 9 10 10 8 7 8 10 8 6 7 8 8 7 7 8 9 9 8 7 7 8 8 8 9 9 7 6 7 8 8 8 7 7 7 8 9 9 9 9 7 5 5 5 4 4 4 5 8 10 8 7 6 5 5 4 4 4 4 5 5 6 6 6 6 6 6 6 6 6 6 6 nan
nan 6 7 7 7 7 7 7 6 8 8 8 8 8 7 7 7 8 7 7 7 8 8 9 9 8 7 6 7 8 9 9 9 9 8 8 9 12 9 5 7 8 8 8 8 8 9 8 8 7 7 7 7 7 9 10 8 7 6 8 8 8 7 7 6 6 7 9 11 10 7 6 5 4 5 5 6 7 9 10 10 7 5 5 5 4 4 4 4 5 5 6 6 6 7 7 6 6 6 6 6 7 nan
nan 6 7 8 7 6 7 7 6 7 8 8 8 8 7 6 7 7 6 7 8 9 9 9 9 8 8 6 6 7 10 10 9 9 8 7 7 10 9 7 6 7 8 9 9 10 8 7 7 7 7 7 7 7 8 10 9 7 6 8 8 8 7 7 6 5 6 10 12 11 7 5 5 5 5 6 6 7 8 9 11 10 7 5 5 4 4 4 5 6 6 6 6 6 6 7 7 7 7 7 8 8 nan
nan 6 8 10 9 7 7 7 6 7 7 8 8 9 9 8 8 7 6 5 6 8 9 10 11 9 7 6 6 7 9 10 10 10 7 5 4 5 6 8 8 7 7 9 10 12 9 7 7 7 7 7 7 7 8 10 9 7 7 8 8 9 8 6 6 5 7 10 10 10 7 5 5 5 5 6 7 7 7 8 9 10 10 9 7 5 5 5 6 6 7 7 7 7 7 7 7 8 8 9 9 9 nan
nan 6 7 9 10 8 8 7 6 6 8 8 8 9 10 9 8 8 8 5 3 4 7 8 11 11 9 6 6 7 8 9 9 7 5 5 4 4 5 7 7 7 7 7 9 10 10 8 8 7 7 7 7 7 8 10 9 8 7 8 8 9 8 7 6 6 8 9 8 8 7 5 4 5 6 7 7 8 8 7 8 9 9 10 9 7 7 8 7 7 7 8 7 7 7 8 8 9 10 10 10 11 nan
nan 8 7 7 9 9 10 9 6 6 9 10 10 9 9 8 7 8 10 8 3 2 4 5 8 12 11 8 7 8 8 9 7 1 3 7 7 6 7 7 7 7 7 6 7 7 10 9 9 9 7 7 7 7 8 9 10 8 6 7 8 8 8 7 7 7 9 9 8 7 6 5 4 5 8 9 9 10 9 8 8 8 7 7 8 9 9 11 11 9 8 8 8 8 8 9 9 10 11 11 11 12 nan
nan 8 8 7 8 9 11 11 8 6 7 9 10 9 10 10 7 6 10 12 8 4 1 1 4 9 11 10 9 10 9 7 6 2 3 7 7 7 8 8 6 7 9 7 6 5 7 9 9 10 9 8 7 7 7 9 9 8 7 7 8 8 8 7 8 8 9 9 9 9 7 5 5 5 8 10 10 10 10 9 8 7 7 8 9 9 10 12 12 13 11 9 9 8 9 10 11 12 12 12 12 12 nan
nan 7 7 7 8 8 9 11 10 7 6 8 9 8 9 10 7 5 7 10 10 8 6 3 2 4 7 9 9 12 11 7 6 3 1 5 5 5 5 6 6 8 10 9 7 8 8 10 9 10 10 10 8 7 7 7 8 9 9 7 7 7 8 9 9 9 9 9 8 9 8 7 7 7 8 9 9 9 10 10 9 8 8 9 9 8 9 11 12 12 12 12 11 10 10 10 12 12 12 12 11 10 nan
nan 8 5 4 6 8 8 10 10 10 6 7 9 10 10 9 7 6 6 6 8 8 9 6 3 2 5 7 8 9 12 10 7 3 2 4 4 3 3 5 7 9 9 8 7 10 14 15 11 9 10 11 11 9 8 7 7 8 9 8 7 7 8 9 9 9 9 9 8 9 9 7 8 8 8 8 8 8 9 10 10 10 10 9 9 8 10 12 10 8 7 10 12 15 14 13 13 12 11 11 9 8 nan
nan 8 6 4 4 5 8 9 8 9 7 7 10 11 12 10 8 7 6 6 6 5 7 8 6 1 3 7 7 7 12 12 9 6 4 2 3 0 2 5 7 6 7 7 6 8 14 18 15 10 10 12 11 10 10 9 7 8 9 8 6 6 7 8 9 9 8 8 9 11 9 8 8 9 7 7 8 9 9 9 9 9 10 11 11 11 11 9 4 1 2 4 8 14 18 15 13 10 9 9 8 7 nan
nan 7 6 6 5 4 6 8 8 8 7 7 9 10 11 11 11 9 8 8 7 6 4 6 8 2 -1 5 9 8 9 12 11 9 7 4 3 -1 1 5 6 5 6 7 8 8 12 15 11 10 12 14 12 9 10 12 10 8 8 9 8 7 6 7 8 9 8 8 9 9 10 10 10 9 6 6 8 9 9 8 8 8 9 10 10 9 8 5 2 2 3 3 6 10 16 13 10 8 7 7 6 6 nan
nan 9 8 7 6 5 4 6 8 8 8 7 8 9 10 10 11 12 11 9 9 8 4 6 10 9 2 1 7 9 7 10 11 10 9 8 6 1 -1 4 8 9 9 9 11 11 13 11 6 6 13 15 14 9 9 12 11 9 9 8 8 8 6 6 7 8 9 9 8 8 10 11 10 8 7 6 7 8 9 8 8 8 9 9 8 8 9 8 6 5 5 6 7 10 13 10 7 6 5 5 5 5 nan
nan 9 9 8 8 6 4 5 7 7 8 7 8 8 9 9 10 10 12 11 9 10 6 3 7 11 8 1 2 6 7 7 9 10 10 10 10 7 1 0 6 12 13 13 13 12 11 8 7 6 12 12 12 9 10 11 11 9 10 10 8 9 9 7 7 8 8 7 7 8 10 10 10 9 8 7 7 8 9 8 8 9 9 8 8 9 12 13 11 10 11 12 12 14 10 7 7 6 5 4 4 5 nan
nan 7 9 9 9 8 6 4 5 6 7 7 7 8 9 9 9 9 11 12 10 11 8 4 5 6 8 5 2 4 7 8 7 8 9 10 13 12 8 2 1 5 11 11 11 10 11 9 8 8 9 9 8 8 9 12 12 10 10 11 10 10 10 8 8 7 8 7 7 8 9 10 10 9 8 7 7 8 9 8 8 9 8 7 9 11 14 14 13 12 12 12 12 11 9 8 7 6 5 5 4 5 nan
nan 6 8 10 9 8 7 6 5 5 6 8 8 9 10 10 9 8 9 12 12 11 9 6 4 5 9 12 9 9 10 9 8 9 8 8 11 14 12 6 3 2 4 6 7 9 11 11 10 11 9 10 11 11 9 10 11 11 11 12 11 10 9 8 9 8 9 8 8 9 9 9 10 9 8 7 7 8 9 9 9 9 8 8 10 11 11 10 10 8 7 7 7 7 7 8 7 7 6 5 5 5 nan
nan nan nan nan nan nan nan nan nan nan nan nan nan nan nan nan nan nan nan nan nan nan nan nan nan nan nan nan nan nan nan nan nan nan nan nan nan nan nan nan nan nan nan nan nan nan nan nan nan nan nan nan nan nan nan nan nan nan nan nan nan nan nan nan nan nan nan nan nan nan nan nan nan nan nan nan nan nan nan nan nan nan nan nan nan nan nan nan nan nan nan nan nan nan nan nan nan nan nan nan nan nan nan
CAPE
nan nan nan nan 7 7 18 16 9 9 8 17 22 22 31 38 38 38 30 19 19 9 3 1 nan nan nan nan nan nan nan nan 9 9 21 21 21 11 2 nan nan nan nan nan nan nan 2 1 nan nan nan nan nan nan nan nan nan nan nan nan nan nan nan 87 158 158 174 190 186 186 163 90 101 101 100 102 102 124 189 247 247 265 309 435 644 644 736 730 731 731 754 866 988 988 959 918 918 876 795 777 777 823 842
nan nan nan 0 10 10 19 9 4 4 6 22 36 36 46 39 39 30 18 9 9 4 2 nan nan nan nan nan nan nan nan nan 8 8 17 21 21 7 0 nan nan nan nan nan nan nan nan 1 nan nan nan nan nan nan nan nan nan nan nan nan nan nan nan 0 55 55 99 112 100 100 88 68 78 78 75 66 66 75 132 220 220 254 296 392 520 520 659 664 658 658 665 689 773 773 774 813 813 773 755 792 792 809 887
nan nan nan 3 18 18 24 11 4 4 9 29 56 56 50 29 29 17 6 3 3 1 nan nan nan nan nan nan nan nan nan 0 11 11 22 12 12 3 nan nan nan nan nan nan nan nan nan 1 nan nan nan nan nan nan nan nan nan nan nan nan nan nan nan nan 13 13 51 56 49 49 40 51 62 62 58 49 49 57 110 236 236 266 318 348 428 428 556 640 624 624 570 547 553 553 604 612 612 684 690 724 724 771 844
nan nan 3 10 29 29 28 25 20 20 32 45 57 57 34 11 11 3 1 nan nan nan nan nan nan nan nan nan nan nan nan nan 12 12 18 9 9 0 nan nan nan nan nan nan nan nan nan nan nan nan nan nan nan nan nan nan nan nan nan nan nan nan nan nan 7 7 18 24 28 28 28 33 47 47 54 54 54 68 186 311 311 301 301 330 360 360 447 535 596 596 550 479 460 460 444 462 462 470 519 547 547 594 662
4 8 22 35 42 42 41 39 45 45 57 70 62 62 19 6 6 nan nan nan nan nan nan nan nan nan nan nan nan nan nan 0 20 20 18 4 4 nan nan nan nan nan nan nan nan nan nan nan nan nan nan nan nan nan nan nan nan nan nan nan nan nan nan nan 19 19 23 28 30 30 31 36 46 46 55 67 67 144 328 435 435 363 304 309 344 344 356 429 461 461 442 415 365 365 349 349 349 384 386 385 385 398 460
31 37 53 63 57 57 50 56 71 71 89 84 57 57 15 1 1 nan nan nan nan nan nan nan nan nan nan nan nan nan nan 3 17 17 6 nan nan nan nan nan nan nan nan nan nan nan nan nan nan nan nan nan nan nan nan nan nan nan nan nan nan nan nan nan 38 38 43 47 39 39 47 70 68 68 65 112 112 232 464 520 520 422 310 283 301 301 308 359 350 350 339 329 300 300 274 274 274 289 275 259 259 268 273
55 61 63 68 72 72 65 72 89 89 99 90 42 42 11 0 0 nan nan nan nan nan nan nan nan nan nan nan nan nan nan 14 12 12 0 nan nan nan nan nan nan nan nan nan nan nan nan nan nan nan nan nan nan nan nan nan nan nan nan nan nan nan nan nan 42 42 60 55 63 63 81 133 166 166 146 195 195 334 467 529 529 437 304 262 270 270 260 263 258 258 251 219 233 233 226 200 200 194 187 179 179 151 158
71 57 52 49 54 54 64 72 97 97 114 88 44 44 11 0 0 nan nan nan nan nan nan nan nan nan nan nan nan nan 1 16 2 2 nan nan nan nan nan nan nan nan nan nan nan nan nan nan nan nan nan nan nan nan nan nan nan nan nan nan nan nan 1 0 47 47 63 68 101 101 183 260 276 276 274 318 318 378 424 427 427 344 270 223 200 200 185 190 189 189 163 156 149 149 143 139 139 135 110 105 105 81 78
68 55 43 38 34 34 45 75 106 106 125 96 45 45 13 0 0 nan nan nan nan nan nan nan nan nan nan nan nan nan 6 9 nan nan nan nan nan nan nan nan nan nan nan nan nan nan nan nan nan nan nan nan nan nan nan nan nan nan nan nan nan nan 1 5 54 54 60 78 143 143 257 352 343 343 365 390 390 394 358 286 286 232 191 166 125 125 102 101 84 84 83 81 77 77 77 77 77 77 66 60 60 52 42
65 54 49 37 31 31 33 74 114 114 129 85 38 38 8 nan nan nan nan nan nan nan nan nan nan nan nan nan 1 1 6 0 nan nan nan nan nan nan nan nan nan nan nan nan nan nan nan nan nan nan nan nan nan nan nan nan nan nan nan nan nan nan 1 10 54 54 65 88 196 196 299 322 329 329 371 396 396 353 236 180 180 161 117 97 69 69 47 41 33 33 35 37 39 39 41 35 35 37 38 34 34 27 19
61 65 61 55 49 49 62 101 130 130 116 72 34 34 6 nan nan nan nan nan nan nan nan nan nan nan nan nan 1 1 1 nan nan nan nan nan nan nan nan nan nan nan nan nan nan nan nan nan nan nan nan nan nan nan nan nan nan nan nan nan nan 1 1 18 53 53 66 114 184 184 251 249 255 255 271 230 230 173 124 97 97 78 58 54 42 42 32 22 16 16 17 20 24 24 23 22 22 19 14 10 10 9 8
70 76 79 79 86 86 95 129 132 132 108 59 29 29 7 0 0 nan nan nan nan nan nan nan nan nan nan nan 1 1 nan nan nan nan nan nan nan nan nan nan nan nan nan nan nan nan nan nan nan nan nan nan nan nan nan nan nan nan nan nan nan 0 3 25 64 64 99 123 181 181 188 166 150 150 130 91 91 67 59 59 59 49 45 43 34 34 27 18 15 15 13 15 18 18 17 15 15 12 9 8 8 7 6
84 92 103 96 119 119 131 142 126 126 97 55 29 29 6 0 0 nan nan nan nan nan nan nan nan nan nan 0 1 1 nan nan nan nan nan nan nan nan nan nan nan nan nan nan nan nan nan nan nan nan nan nan nan nan nan nan nan nan nan 8 8 4 15 56 110 110 134 131 140 140 131 102 68 68 51 45 45 41 37 39 39 36 35 30 26 26 18 13 10 10 9 11 12 12 12 11 11 12 10 7 7 5 5
119 120 103 119 136 136 150 145 122 122 94 51 25 25 8 1 1 nan nan nan nan nan nan nan nan nan nan nan nan nan nan nan nan nan nan nan nan nan nan nan nan nan nan nan nan nan nan nan nan nan nan nan nan nan nan nan nan nan nan 10 10 25 87 154 160 160 143 113 106 106 74 48 38 38 33 27 27 23 20 22 22 19 18 13 11 11 6 5 3 3 6 7 9 9 8 10 10 10 11 8 8 6 4
106 59 61 97 136 136 156 145 123 123 95 53 27 27 10 2 2 nan nan nan nan nan nan nan nan nan nan nan nan nan nan nan nan nan nan nan nan nan nan nan nan nan nan nan nan nan nan nan nan nan nan nan nan nan nan nan nan nan 0 15 15 100 259 269 204 204 162 115 79 79 49 38 33 33 24 18 18 13 12 9 9 5 2 nan nan nan nan 0 1 1 3 4 5 5 5 7 7 6 10 9 9 6 4
0 nan 15 88 127 127 146 126 108 108 88 53 28 28 18 5 5 nan nan nan nan nan nan nan nan nan nan nan nan nan nan nan nan nan nan nan nan nan nan nan nan nan nan nan nan nan nan nan nan nan nan nan nan nan nan nan nan nan 31 46 46 257 426 326 227 227 188 119 55 55 38 32 24 24 18 8 8 4 2 1 1 nan nan nan nan nan nan nan nan nan 0 2 3 3 3 4 4 6 7 7 7 6 6
nan nan nan 75 110 110 137 109 98 98 71 52 35 35 21 12 12 0 nan nan nan nan nan nan nan nan nan nan nan nan nan nan nan nan nan nan nan nan nan nan nan nan nan nan nan nan nan nan nan nan nan nan nan nan nan nan nan nan 201 159 159 307 461 391 226 226 152 78 44 44 33 24 17 17 7 1 1 nan nan nan nan nan nan nan nan nan nan nan nan nan nan 0 1 1 2 2 2 3 4 5 5 4 5
nan nan 39 60 103 103 121 109 88 88 69 46 36 36 28 19 19 5 nan nan nan nan nan nan nan nan nan nan nan nan nan nan nan nan nan nan nan nan nan nan nan nan nan nan nan nan nan nan nan nan nan nan nan nan nan nan nan 30 370 230 230 361 428 353 159 159 90 52 39 39 28 18 6 6 0 nan nan nan nan nan nan nan nan nan nan nan nan nan nan nan nan nan 0 0 1 1 1 1 1 3 3 3 4
nan nan 23 53 90 90 114 110 96 96 74 52 38 38 34 25 25 10 nan nan nan nan nan nan nan nan nan nan nan nan nan nan nan nan nan nan nan nan nan nan nan nan nan nan nan nan nan nan nan nan nan nan nan nan nan nan nan 120 238 316 316 390 391 219 94 94 57 39 35 35 25 13 2 2 nan nan nan nan nan nan nan nan nan nan nan nan nan nan nan nan nan nan 0 0 0 0 0 1 1 1 1 2 3
nan 13 29 35 68 68 80 97 107 107 105 83 40 40 31 36 36 28 6 nan nan nan nan nan nan nan nan nan nan nan nan nan nan nan nan nan nan nan nan nan nan nan nan nan nan nan nan nan nan nan nan nan nan nan nan nan nan 211 277 303 303 216 141 77 48 48 33 27 19 19 9 1 nan nan nan nan nan nan nan nan nan nan nan nan nan nan nan nan nan nan nan nan 0 0 0 1 1 1 1 0 0 1 1
7 9 8 25 32 32 40 52 60 60 58 85 nan nan nan nan nan 20 4 nan nan nan nan nan nan nan nan nan nan nan nan nan nan nan nan nan nan nan nan nan nan nan nan nan nan nan nan nan nan nan nan nan nan nan nan 11 11 192 249 224 224 120 73 58 38 38 28 20 10 10 2 nan nan nan nan nan nan nan nan nan nan nan nan nan nan nan nan nan nan nan nan nan nan nan 0 1 1 1 1 1 1 1 1
6 10 14 15 11 11 11 16 17 17 13 75 nan nan nan nan nan nan nan nan nan nan nan nan nan nan nan nan nan nan nan nan nan nan nan nan nan nan nan nan nan nan nan nan nan nan nan nan nan nan nan nan nan nan nan 37 37 114 179 158 158 71 51 42 28 28 22 12 3 3 nan nan nan nan nan nan nan nan nan nan nan nan nan nan nan nan nan nan nan nan nan nan 0 0 1 1 1 1 1 1 1 1 1
3 2 6 14 17 17 11 15 17 17 2 18 nan nan nan nan nan nan nan nan nan nan nan nan nan nan nan nan nan nan nan nan nan nan nan nan nan nan nan nan nan nan nan nan nan nan nan nan nan nan nan nan nan nan nan 7 7 81 158 136 136 59 41 26 19 19 11 4 nan nan nan nan nan nan nan nan nan nan nan nan nan nan nan nan nan nan nan nan nan nan nan nan 0 0 1 1 1 1 1 1 1 1 2
0 nan 1 7 11 11 4 12 20 20 9 4 3 3 nan nan nan nan nan nan nan nan nan nan nan nan nan nan nan nan nan nan nan nan nan nan nan nan nan nan nan nan nan nan nan nan nan nan nan nan nan nan nan nan nan nan nan 36 99 102 102 45 30 21 14 14 6 1 nan nan nan nan nan nan nan nan nan nan nan nan nan nan nan nan nan nan nan nan nan nan nan nan nan nan 0 1 1 1 1 1 1 1 2
0 nan nan 0 4 4 0 3 13 13 0 4 4 4 nan nan nan nan nan nan nan nan nan nan nan nan nan nan nan nan nan nan nan nan nan nan nan nan nan nan nan nan nan nan nan nan nan nan nan nan nan nan nan nan nan nan nan nan 23 64 64 43 19 16 7 7 3 nan nan nan nan nan nan nan nan nan nan nan nan nan nan nan nan nan nan nan nan nan nan nan nan nan nan nan nan 0 0 0 1 1 1 1 1
nan nan nan nan 0 0 nan nan 1 1 0 6 1 1 nan nan nan nan nan nan nan nan nan nan nan nan nan nan nan nan nan nan nan nan nan nan nan nan nan nan nan nan nan nan nan nan nan nan nan nan nan nan nan nan nan nan nan nan 0 26 26 33 17 7 4 4 1 nan nan nan nan nan nan nan nan nan nan nan nan nan nan nan nan nan nan nan nan nan nan nan nan nan nan nan nan 0 0 0 0 1 1 1 1
nan nan nan nan nan nan nan nan nan nan nan 11 0 0 nan nan nan nan nan nan nan nan nan nan nan nan nan nan nan nan nan nan nan nan nan nan nan nan nan nan nan nan nan nan nan nan nan nan nan nan nan nan nan nan nan nan nan nan nan 3 3 20 15 1 0 0 nan nan nan nan nan nan nan nan nan nan nan nan nan nan nan nan nan nan nan nan nan nan nan nan nan nan nan nan nan nan nan 0 0 0 0 1 1
0 nan nan nan nan nan nan nan nan nan nan 3 nan nan nan nan nan nan nan nan nan nan nan nan nan nan nan nan nan nan nan nan nan nan nan nan nan nan nan nan nan nan nan nan nan nan nan nan nan nan nan nan nan nan nan nan nan nan nan nan nan 8 7 nan nan nan nan nan nan nan nan nan nan nan nan nan nan nan nan nan nan nan nan nan nan nan nan nan nan nan nan nan nan nan nan nan nan nan 0 0 0 1 1
0 nan nan nan nan nan nan nan nan nan nan 3 nan nan nan nan nan nan nan nan nan nan nan nan nan nan nan nan nan nan nan nan nan nan nan nan nan nan nan nan nan nan nan nan nan nan nan nan nan nan nan nan nan nan nan nan nan nan nan nan nan 2 4 nan nan nan nan nan nan nan nan nan nan nan nan nan nan nan nan nan nan nan nan nan nan nan nan nan nan nan nan nan nan nan nan nan nan nan nan 0 0 1 1
1 nan nan nan nan nan nan nan nan nan nan 3 nan nan nan nan nan nan nan nan nan nan nan nan nan nan nan nan nan nan nan nan nan nan nan nan nan nan nan nan nan nan nan nan nan nan nan nan nan nan nan nan nan nan nan nan nan nan nan nan nan nan 2 0 nan nan nan nan nan nan nan nan nan nan nan nan nan nan nan nan nan nan nan nan nan nan nan nan nan nan nan nan nan nan nan nan nan nan nan nan nan 0 1
1 nan nan nan nan nan nan nan nan nan nan nan 0 0 nan nan nan nan nan nan nan nan nan nan nan nan nan nan nan nan nan nan nan nan nan nan nan nan nan nan nan nan nan nan nan nan nan nan nan nan nan nan nan nan nan nan nan nan nan nan nan nan nan nan nan nan nan nan nan nan nan nan nan nan nan nan nan nan nan nan nan nan nan nan nan nan nan nan nan nan nan nan nan nan nan nan nan nan nan nan nan nan 1
0 nan nan nan nan nan nan nan nan nan nan nan 0 0 nan nan nan nan nan nan nan nan nan nan nan nan nan nan nan nan nan nan nan nan nan nan nan nan nan nan nan nan nan nan nan nan nan nan nan nan nan nan nan nan nan nan nan nan nan nan nan nan nan nan nan nan nan nan nan nan nan nan nan nan nan nan nan nan nan nan nan nan nan nan nan nan nan nan nan nan nan nan nan nan nan nan nan nan nan nan nan nan nan
nan nan nan nan nan nan nan nan nan nan nan nan nan nan nan nan nan nan nan nan nan nan nan nan nan nan nan nan nan nan nan nan nan nan nan nan nan nan nan nan nan nan nan nan nan nan nan nan nan nan nan nan nan nan nan nan nan nan nan nan nan nan nan nan nan nan nan nan nan nan nan nan nan nan nan nan nan nan nan nan nan nan nan nan nan nan nan nan nan nan nan nan nan nan nan nan nan nan nan nan nan nan nan
nan nan nan nan nan nan nan nan nan nan nan nan nan nan nan nan nan nan nan nan nan nan nan nan nan nan nan nan nan nan nan nan nan nan nan nan nan nan nan nan nan nan nan nan nan nan nan nan nan nan nan nan nan nan nan nan nan nan nan nan nan nan nan nan nan nan nan nan nan nan nan nan nan nan nan nan nan nan nan nan nan nan nan nan nan nan nan nan nan nan nan nan nan nan nan nan nan nan nan nan nan nan nan
nan nan nan nan nan nan nan nan nan nan nan nan nan nan nan nan nan nan nan nan nan nan nan nan nan nan nan nan nan nan nan nan nan nan nan nan nan nan nan nan nan nan nan nan nan nan nan nan nan nan nan nan nan nan nan nan nan nan nan nan nan nan nan nan nan nan nan nan nan nan nan nan nan nan nan nan nan nan nan nan nan nan nan nan nan nan nan nan nan nan nan nan nan nan nan nan nan nan nan nan nan nan nan
nan nan nan nan nan nan nan nan nan nan nan nan nan nan nan nan nan nan nan nan nan nan nan nan nan nan nan nan nan nan nan nan nan nan nan nan nan nan nan nan nan nan nan nan nan nan nan nan nan nan nan nan nan nan nan nan nan nan nan nan nan nan nan nan nan nan nan nan nan nan nan nan nan nan nan nan nan nan nan nan nan nan nan nan nan nan nan nan nan nan nan nan nan nan nan nan nan nan nan nan nan nan nan
nan nan nan nan nan nan nan nan nan nan nan nan nan nan nan nan nan nan nan nan nan nan nan nan nan nan nan nan nan nan nan nan nan nan nan nan nan nan nan nan nan nan nan nan nan nan nan nan nan nan nan nan nan nan nan nan nan nan nan nan nan nan nan nan nan nan nan nan nan nan nan nan nan nan nan nan nan nan nan nan nan nan nan nan nan nan nan nan nan nan nan nan nan nan nan nan nan nan nan nan nan nan nan
nan nan nan nan nan nan nan nan nan nan nan nan nan nan nan nan nan nan nan nan nan nan nan nan nan nan nan nan nan nan nan nan nan nan nan nan nan nan nan nan nan nan nan nan nan nan nan nan nan nan nan nan nan nan nan nan nan nan nan nan nan nan nan nan nan nan nan nan nan nan nan nan nan nan nan nan nan nan nan nan nan nan nan nan nan nan nan nan nan nan nan nan nan nan nan nan nan nan nan nan nan nan nan
nan nan nan nan nan nan nan nan nan nan nan nan nan nan nan nan nan nan nan nan nan nan nan nan nan nan nan nan nan nan nan nan nan nan nan nan nan nan nan nan nan nan nan nan nan nan nan nan nan nan nan nan nan nan nan nan nan nan nan nan nan nan nan nan nan nan nan nan nan nan nan nan nan nan nan nan nan nan nan nan nan nan nan nan nan nan nan nan nan nan nan nan nan nan nan nan nan nan nan nan nan nan nan
nan nan nan nan nan nan nan nan nan nan nan nan nan nan nan nan nan nan nan nan nan nan nan nan nan nan nan nan nan nan nan nan nan nan nan nan nan nan nan nan nan nan nan nan nan nan nan nan nan nan nan nan nan nan nan nan nan nan nan nan nan nan nan nan nan nan nan nan nan nan nan nan nan nan nan nan nan nan nan nan nan nan nan nan nan nan nan nan nan nan nan nan nan nan nan nan nan nan nan nan nan nan nan
nan nan nan nan nan nan nan nan nan nan nan nan nan nan nan nan nan nan nan nan nan nan nan nan nan nan nan nan nan nan nan nan nan nan nan nan nan nan nan nan nan nan nan nan nan nan nan nan nan nan nan nan nan nan nan nan nan nan nan nan nan nan nan nan nan nan nan nan nan nan nan nan nan nan nan nan nan nan nan nan nan nan nan nan nan nan nan nan nan nan nan nan nan nan nan nan nan nan nan nan nan nan nan
nan nan nan 0 nan nan nan nan nan nan nan nan nan nan nan nan nan nan nan nan nan nan nan nan nan nan nan nan nan nan nan nan nan nan nan nan nan nan nan nan nan nan nan nan nan nan nan nan nan nan nan nan nan nan nan nan nan nan nan nan nan nan nan nan nan nan nan nan nan nan nan nan nan nan nan nan nan nan nan nan nan nan nan nan nan nan nan nan nan nan nan nan nan nan nan nan nan nan nan nan nan nan nan
6 6 5 4 0 0 nan nan nan nan nan nan nan nan nan nan nan nan nan nan nan nan nan nan nan nan nan nan nan nan nan nan nan nan nan nan nan nan nan nan nan nan nan nan nan nan nan nan nan nan nan nan nan nan nan nan nan nan nan nan nan nan nan nan nan nan nan nan nan nan nan nan nan nan nan nan nan nan nan nan nan nan nan nan nan nan nan nan nan nan nan nan nan nan nan nan nan nan nan nan nan nan nan
16 15 11 10 3 3 nan nan nan nan nan nan nan nan nan nan nan nan nan nan nan nan nan nan nan nan nan nan nan nan nan nan nan nan nan nan nan nan nan nan nan nan nan nan nan nan nan nan nan nan nan nan nan nan nan nan nan nan nan nan nan nan nan nan nan nan nan nan nan nan nan nan nan nan nan nan nan nan nan nan nan nan nan nan nan nan nan nan nan nan nan nan nan nan nan nan nan nan nan nan nan nan nan
27 26 25 20 11 11 1 nan nan nan nan nan nan nan nan nan nan nan nan nan nan nan nan nan nan nan nan nan nan nan nan nan nan nan nan nan nan nan nan nan nan nan nan nan nan nan nan nan nan nan nan nan nan nan nan nan nan nan nan nan nan nan nan nan nan nan nan nan nan nan nan nan nan nan nan nan nan nan nan nan nan nan nan nan nan nan nan nan nan nan nan nan nan nan nan nan nan nan nan nan nan nan nan
48 38 43 42 28 28 11 1 nan nan nan nan nan nan nan 0 0 nan nan nan nan nan nan nan nan nan nan nan nan nan nan nan nan nan nan nan nan nan nan nan nan nan nan nan nan nan nan nan nan nan nan nan nan nan nan nan nan nan nan nan nan nan nan nan nan nan nan nan nan nan nan nan nan nan nan nan nan nan nan nan nan nan nan nan nan nan nan nan nan nan nan nan nan nan nan nan nan nan nan nan nan nan nan
105 106 110 93 67 67 39 14 0 0 nan nan 0 0 1 2 2 nan nan nan nan nan nan nan nan nan nan nan nan nan nan nan nan nan nan nan nan nan nan nan nan nan nan nan nan nan nan nan nan nan nan nan nan nan nan nan nan nan nan nan nan nan nan nan nan nan nan nan nan nan nan nan nan nan nan nan nan nan nan nan nan nan nan nan nan nan nan nan nan nan nan nan nan nan nan nan nan nan nan nan nan nan nan
141 136 149 140 140 140 100 40 3 3 nan 0 3 3 8 5 5 nan nan nan nan nan nan nan nan nan nan nan nan nan nan nan nan nan nan nan nan nan nan nan nan nan nan nan nan nan nan nan nan nan nan nan nan nan nan nan nan nan nan nan nan nan nan nan nan nan nan nan nan nan nan nan nan nan nan nan nan nan nan nan nan nan nan nan nan nan nan nan nan nan nan nan nan nan nan nan nan nan nan nan nan nan nan
190 179 192 212 211 211 168 84 21 21 0 2 8 8 8 1 1 nan nan nan nan nan nan nan nan nan nan nan nan nan nan nan nan nan nan nan nan nan nan nan nan nan nan nan nan nan nan nan nan nan nan nan nan nan nan nan nan nan nan nan nan nan nan nan nan nan nan nan nan nan nan nan nan nan nan nan nan nan nan nan nan nan nan nan nan nan nan nan nan nan nan nan nan nan nan nan nan nan nan nan nan nan nan
274 259 252 270 268 268 242 153 48 48 2 0 6 6 6 1 1 nan nan nan nan nan nan nan nan nan nan nan nan nan nan nan nan nan nan nan nan nan nan nan nan nan nan nan nan nan nan nan nan nan nan nan nan nan nan nan nan nan nan nan nan nan nan nan nan nan nan nan nan nan nan nan nan nan nan nan nan nan nan nan nan nan nan nan nan nan nan nan nan nan nan nan nan nan nan nan nan nan nan nan nan nan nan
278 308 298 316 311 311 305 271 87 87 10 1 0 0 2 nan nan nan nan nan nan nan nan nan nan nan nan nan nan nan nan nan nan nan nan nan nan nan nan nan nan nan nan nan nan nan nan nan nan nan nan nan nan nan nan nan nan nan nan nan nan nan nan nan nan nan nan nan nan nan nan nan nan nan nan nan nan nan nan nan nan nan nan nan nan nan nan nan nan nan nan nan nan nan nan nan nan nan nan nan nan nan nan
216 268 302 342 361 361 307 319 167 167 24 2 0 0 2 nan nan nan nan nan nan nan nan nan nan nan nan nan nan nan nan nan nan nan nan nan nan nan nan nan nan nan nan nan nan nan nan nan nan nan nan nan nan nan nan nan nan nan nan nan nan nan nan nan nan nan nan nan nan nan nan nan nan nan nan nan nan nan nan nan nan nan nan nan nan nan nan nan nan nan nan nan nan nan nan nan nan nan nan nan nan nan nan
194 206 260 321 363 363 333 300 256 256 41 4 0 0 1 1 1 0 nan nan nan nan nan nan nan nan nan nan nan nan nan nan nan nan nan nan nan nan nan nan nan nan nan nan nan nan nan nan nan nan nan nan nan nan nan nan nan nan nan nan nan nan nan nan nan nan nan nan nan nan nan nan nan nan nan nan nan nan nan nan nan nan nan nan nan nan nan nan nan nan nan nan nan nan nan nan nan nan nan nan nan nan nan
153 166 177 254 248 248 288 303 286 286 79 3 nan nan nan nan nan nan nan nan nan nan nan nan nan nan nan nan nan nan nan nan nan nan nan nan nan nan nan nan nan nan nan nan nan nan nan nan nan nan nan nan nan nan nan nan nan nan nan nan nan nan nan nan nan nan nan nan nan nan nan nan nan nan nan nan nan nan nan nan nan nan nan nan nan nan nan nan nan nan nan nan nan nan nan nan nan nan nan nan nan nan nan
137 115 163 215 229 229 223 238 269 269 132 1 nan nan nan nan nan nan nan nan nan nan nan nan nan nan nan nan nan nan nan nan nan nan nan nan nan nan nan nan nan nan nan nan nan nan nan nan nan nan nan nan nan nan nan nan nan nan nan nan nan nan nan nan nan nan nan nan nan nan nan nan nan nan nan nan nan nan nan nan nan nan nan nan nan nan nan nan nan nan nan nan nan nan nan nan nan nan nan nan nan nan nan
157 119 172 160 170 170 163 154 164 164 122 13 nan nan nan nan nan nan nan nan nan nan nan nan nan nan nan nan nan nan nan nan nan nan nan nan nan nan nan nan nan nan nan nan nan nan nan nan nan nan nan nan nan nan nan nan nan nan nan nan nan nan nan nan nan nan nan nan nan nan nan nan nan nan nan nan nan nan nan nan nan nan nan nan nan nan nan nan nan nan nan nan nan nan nan nan nan nan nan nan nan nan nan
171 112 112 124 113 113 123 154 105 105 128 49 nan nan nan nan nan nan nan nan nan nan nan nan nan nan nan nan nan nan nan nan nan nan nan nan nan nan nan nan nan nan nan nan nan nan nan nan nan nan nan nan nan nan nan nan nan nan nan nan nan nan nan nan nan nan nan nan nan nan nan nan nan nan nan nan nan nan nan nan nan nan nan nan nan nan nan nan nan nan nan nan nan nan nan nan nan nan nan nan nan nan nan
143 164 84 83 77 77 124 155 106 106 113 79 0 0 nan nan nan nan 7 3 3 nan nan nan nan nan nan nan nan nan nan nan nan nan nan nan nan nan nan nan nan nan nan nan nan nan nan nan nan nan nan nan nan nan nan nan nan nan nan nan nan nan nan nan nan nan nan nan nan nan nan nan nan nan nan nan nan nan nan nan nan nan nan nan nan nan nan nan nan nan nan nan nan nan nan nan nan nan nan nan nan nan nan
141 117 78 98 96 96 109 138 126 126 99 84 19 19 nan nan nan nan 10 24 24 2 nan nan nan nan nan nan nan nan nan nan nan nan nan nan nan nan nan nan nan nan nan nan nan nan nan nan nan nan nan nan nan nan nan nan nan nan nan nan nan nan nan nan nan nan nan nan nan nan nan nan nan nan nan nan nan nan nan nan nan nan nan nan nan nan nan nan nan nan nan nan nan nan nan nan nan nan nan nan nan nan nan
101 116 95 50 66 66 152 144 131 131 136 105 44 44 nan nan nan nan 2 35 35 22 nan nan nan nan nan nan nan nan nan nan nan nan nan nan nan nan nan nan nan nan nan nan nan nan nan nan nan nan nan nan nan nan nan nan nan nan nan nan nan nan nan nan nan nan nan nan nan nan nan nan nan nan nan nan nan nan nan nan nan nan nan nan nan nan nan nan nan nan nan nan nan nan nan nan nan nan nan nan nan nan nan
105 96 134 135 120 120 156 167 194 194 221 108 60 60 nan nan nan nan nan 13 13 16 36 nan nan nan nan nan nan nan nan nan nan nan nan nan nan nan nan nan nan nan nan nan nan nan nan nan nan nan nan nan nan nan nan nan nan nan nan nan nan nan nan nan nan nan nan nan nan nan nan nan nan nan nan nan nan nan nan nan nan nan nan nan nan nan nan nan nan nan nan nan nan nan nan nan nan nan nan nan nan nan nan